Windom, MN

4:42 PM CDT on April 23, 2018 (GMT -0500)
Windom Municipal

Weather History for KMWM - July, 2012

Change the Weather History Date:

Monday, July 30, 2012

  Actual Average Record
Temperature  
Mean Temperature 76 °F -  
Max Temperature 89 °F 83 °F 99 °F (1955)
Min Temperature 64 °F 61 °F 49 °F (1952)
Cooling Degree Days 12    
Growing Degree Days 26 (Base 50)    
Moisture  
Dew Point 67 °F    
Average Humidity 77    
Maximum Humidity 100    
Minimum Humidity 45    
Precipitation  
Precipitation 0.00 in - - ()
Sea Level Pressure  
Sea Level Pressure 29.95 in    
Wind  
Wind Speed 7 mph (West)    
Max Wind Speed 14 mph    
Max Gust Speed 16 mph    
Visibility 8 miles    
Events Fog    
Averages and records for this station are not official NWS values.
T = Trace of Precipitation, MM = Missing Value Source: NWS Daily Summary

Daily Weather History Graph

Daily Weather History Graph

Search for Another Location

Airport or City:

Astronomy

Jul. 30, 2012 Rise Set
Actual Time 6:07 AM CDT 8:45 PM CDT
Civil Twilight 5:34 AM CDT 9:18 PM CDT
Nautical Twilight 4:52 AM CDT 10:00 PM CDT
Astronomical Twilight 4:04 AM CDT 10:47 PM CDT
Moon 6:49 PM CDT (7/30) 3:21 AM CDT (7/30)
Length of Visible Light 15h 44m
Length of Day
14h 38m
Waxing Gibbous, 92% of the Moon is Illuminated
Jul 30
Waxing Gibbous
Aug 1
Full
Aug 9
Last Quarter
Aug 17
New
Aug 24
First Quarter

Hourly Weather History & Observations

Time (CDT) Temp. Heat Index Dew Point Humidity Pressure Visibility Wind Dir Wind Speed Gust Speed Precip Events Conditions
12:12 AM 68.0 °F - 66.2 °F 94% 29.96 in 7.0 mi South 3.5 mph - N/A   Clear
12:33 AM 68.0 °F - 66.2 °F 94% 29.96 in 7.0 mi SSE 6.9 mph - N/A   Clear
12:53 AM 66.2 °F - 66.2 °F 100% 29.96 in 5.0 mi SSE 4.6 mph - N/A   Clear
1:33 AM 66.2 °F - 66.2 °F 100% 29.95 in 5.0 mi SE 3.5 mph - N/A   Clear
1:53 AM 66.2 °F - 66.2 °F 100% 29.94 in 5.0 mi SSE 4.6 mph - N/A   Clear
2:12 AM 66.2 °F - 66.2 °F 100% 29.92 in 5.0 mi SE 5.8 mph - N/A   Clear
2:33 AM 68.0 °F - 66.2 °F 94% 29.92 in 5.0 mi SSE 8.1 mph - N/A   Clear
2:53 AM 68.0 °F - 66.2 °F 94% 29.92 in 5.0 mi SSE 6.9 mph - N/A   Clear
3:12 AM 66.2 °F - 66.2 °F 100% 29.93 in 5.0 mi South 6.9 mph - N/A   Clear
3:33 AM 66.2 °F - 66.2 °F 100% 29.94 in 5.0 mi SSW 4.6 mph - N/A   Clear
3:53 AM 66.2 °F - 66.2 °F 100% 29.93 in 5.0 mi South 6.9 mph - N/A   Clear
4:12 AM 66.2 °F - 64.4 °F 94% 29.94 in 3.0 mi SW 5.8 mph - N/A   Clear
4:33 AM 66.2 °F - 66.2 °F 100% 29.94 in 3.0 mi SW 8.1 mph - N/A   Scattered Clouds
4:53 AM 66.2 °F - 66.2 °F 100% 29.94 in 1.0 mi SSW 9.2 mph - N/A   Overcast
5:12 AM 66.2 °F - 66.2 °F 100% 29.94 in 1.5 mi SSW 6.9 mph - N/A   Overcast
5:33 AM 66.2 °F - 66.2 °F 100% 29.96 in 2.5 mi SW 6.9 mph - N/A   Overcast
5:52 AM 66.2 °F - 66.2 °F 100% 29.95 in 3.0 mi SW 6.9 mph - N/A   Mostly Cloudy
6:12 AM 66.2 °F - 66.2 °F 100% 29.96 in 4.0 mi SW 5.8 mph - N/A   Clear
6:33 AM 66.2 °F - 66.2 °F 100% 29.96 in 2.0 mi WSW 5.8 mph - N/A   Clear
6:52 AM 66.2 °F - 66.2 °F 100% 29.95 in 1.2 mi SW 8.1 mph - N/A   Mostly Cloudy
7:12 AM 66.2 °F - 66.2 °F 100% 29.95 in 0.5 mi SW 6.9 mph - N/A Fog Fog
7:52 AM 69.8 °F - 68.0 °F 94% 29.95 in 3.0 mi SW 9.2 mph - N/A   Clear
8:12 AM 73.4 °F - 69.8 °F 88% 29.95 in 7.0 mi SW 10.4 mph - N/A   Clear
8:52 AM 71.6 °F - 68.0 °F 88% 29.96 in 5.0 mi SW 10.4 mph - N/A   Scattered Clouds
9:12 AM 73.4 °F - 69.8 °F 88% 29.96 in 7.0 mi SW 10.4 mph - N/A   Scattered Clouds
9:33 AM 75.2 °F - 69.8 °F 83% 29.95 in 10.0 mi SW 9.2 mph - N/A   Scattered Clouds
9:52 AM 77.0 °F - 69.8 °F 78% 29.94 in 10.0 mi SW 10.4 mph - N/A   Clear
10:13 AM 80.6 °F 83.9 °F 69.8 °F 70% 29.94 in 10.0 mi SW 10.4 mph - N/A   Clear
10:33 AM 80.6 °F 84.6 °F 71.6 °F 74% 29.93 in 10.0 mi SW 9.2 mph - N/A   Clear
10:52 AM 82.4 °F 87.2 °F 71.6 °F 70% 29.93 in 10.0 mi WSW 6.9 mph - N/A   Clear
11:13 AM 84.2 °F 89.6 °F 71.6 °F 66% 29.92 in 10.0 mi West 10.4 mph - N/A   Clear
11:33 AM 86.0 °F 91.8 °F 71.6 °F 62% 29.92 in 10.0 mi West 6.9 mph - N/A   Clear
11:52 AM 87.8 °F 93.8 °F 71.6 °F 58% 29.92 in 10.0 mi WNW 11.5 mph - N/A   Clear
12:13 PM 87.8 °F 93.8 °F 71.6 °F 58% 29.92 in 10.0 mi NW 9.2 mph - N/A   Clear
12:32 PM 89.6 °F 96.2 °F 71.6 °F 55% 29.92 in 10.0 mi NW 10.4 mph - N/A   Clear
12:52 PM 89.6 °F 96.2 °F 71.6 °F 55% 29.93 in 10.0 mi NW 8.1 mph - N/A   Clear
1:13 PM 87.8 °F 95.6 °F 73.4 °F 62% 29.93 in 10.0 mi NW 10.4 mph - N/A   Clear
1:32 PM 87.8 °F 93.8 °F 71.6 °F 58% 29.93 in 10.0 mi NNW 9.2 mph - N/A   Clear
1:52 PM 87.8 °F 93.8 °F 71.6 °F 58% 29.93 in 10.0 mi NNW 9.2 mph - N/A   Clear
2:32 PM 87.8 °F 93.8 °F 71.6 °F 58% 29.94 in 10.0 mi NW 10.4 mph 16.1 mph N/A   Clear
2:52 PM 87.8 °F 92.6 °F 69.8 °F 55% 29.94 in 10.0 mi NNW 13.8 mph - N/A   Clear
3:13 PM 87.8 °F 92.6 °F 69.8 °F 55% 29.94 in 10.0 mi NNW 12.7 mph 16.1 mph N/A   Clear
3:32 PM 87.8 °F 91.4 °F 68.0 °F 52% 29.95 in 10.0 mi NNW 12.7 mph - N/A   Clear
3:53 PM 87.8 °F 90.4 °F 66.2 °F 49% 29.94 in 10.0 mi WNW 10.4 mph 16.1 mph N/A   Clear
4:13 PM 87.8 °F 90.4 °F 66.2 °F 49% 29.94 in 10.0 mi NNW 9.2 mph - N/A   Clear
4:32 PM 87.8 °F 89.4 °F 64.4 °F 46% 29.94 in 10.0 mi NW 12.7 mph - N/A   Clear
4:53 PM 86.0 °F 86.6 °F 62.6 °F 45% 29.95 in 10.0 mi NNW 10.4 mph - N/A   Clear
5:32 PM 86.0 °F 86.6 °F 62.6 °F 45% 29.94 in 10.0 mi NNW 10.4 mph - N/A   Clear
5:53 PM 84.2 °F 85.6 °F 64.4 °F 51% 29.94 in 10.0 mi NNW 9.2 mph - N/A   Clear
6:13 PM 84.2 °F 85.6 °F 64.4 °F 51% 29.94 in 10.0 mi NNW 8.1 mph - N/A   Clear
6:32 PM 82.4 °F 83.9 °F 64.4 °F 54% 29.94 in 10.0 mi NW 6.9 mph - N/A   Clear
6:53 PM 82.4 °F 83.9 °F 64.4 °F 54% 29.95 in 10.0 mi North 10.4 mph 16.1 mph N/A   Clear
7:12 PM 80.6 °F 82.3 °F 64.4 °F 58% 29.95 in 10.0 mi North 10.4 mph - N/A   Clear
7:32 PM 78.8 °F - 64.4 °F 61% 29.95 in 10.0 mi North 5.8 mph - N/A   Clear
7:53 PM 78.8 °F - 64.4 °F 61% 29.96 in 10.0 mi NNW 4.6 mph - N/A   Clear
8:12 PM 77.0 °F - 64.4 °F 65% 29.96 in 10.0 mi NNW 4.6 mph - N/A   Clear
8:33 PM 73.4 °F - 64.4 °F 73% 29.96 in 10.0 mi North 6.9 mph - N/A   Clear
8:53 PM 69.8 °F - 62.6 °F 78% 29.96 in 10.0 mi NNW 6.9 mph - N/A   Clear
9:12 PM 68.0 °F - 62.6 °F 83% 29.97 in 10.0 mi North 4.6 mph - N/A   Clear
9:33 PM 64.4 °F - 62.6 °F 94% 29.98 in 10.0 mi North 8.1 mph - N/A   Clear
9:53 PM 66.2 °F - 62.6 °F 88% 29.98 in 10.0 mi North 4.6 mph - N/A   Clear
10:12 PM 66.2 °F - 62.6 °F 88% 29.99 in 10.0 mi NNW 3.5 mph - N/A   Clear
10:33 PM 66.2 °F - 62.6 °F 88% 29.99 in 10.0 mi Calm Calm - N/A   Clear
10:52 PM 66.2 °F - 62.6 °F 88% 29.99 in 10.0 mi Calm Calm - N/A   Clear
11:12 PM 64.4 °F - 60.8 °F 88% 29.99 in 10.0 mi North 4.6 mph - N/A   Clear
11:33 PM 64.4 °F - 60.8 °F 88% 30.00 in 10.0 mi North 5.8 mph - N/A   Clear
11:53 PM 64.4 °F - 60.8 °F 88% 30.00 in 10.0 mi North 5.8 mph - N/A   Clear